Location: Observatory
(52.1446°N, 0.4624°W)
Time: 04:07:12
(UTC+00:00)

ISS - Pass Details

Date: 21 February 2020
Orbit: 415 x 423 km, 51.6° (Epoch: 27 February)

Event Time Altitude Azimuth Distance (km) Brightness Sun altitude
Rises 06:28:03 0° 203° (SSW) 2,357 -0.1 -6.6°
Reaches altitude 10° 06:30:42 10° 181° (S) 1,499 -0.8 -6.2°
Maximum altitude 06:32:49 16° 142° (SE) 1,197 -0.7 -5.8°
Drops below altitude 10° 06:34:58 10° 102° (ESE) 1,508 1.0 -5.5°
Sets 06:37:38 0° 80° (E) 2,378 1.6 -5.1°
